Showing default

CHAMRAN-1, 61072

Orbit data source: Space-Track

CHAMRAN-1, 61072 is an Iranian payload satellite in LEO that was launched on Sat, 14 Sep 2024 UTC via a QAEM-100 launch vehicle from the Sharud Missile Test Site (SMTS). Payloads include a variety of satellites, spacecraft, and rockets equipped with specific instruments for various scientific and technological missions. These include communications satellites like Starlink; space stations such as the ISS; scientific satellites like the Hubble; Earth observation satellites from companies like Planet Labs, Umbra, and HawkEye 360; GPS; miniature CubeSats for education and research; and military/defense satellites.

Loading next visibility...
CHAMRAN-1 details
Identifier
61072, 2024-165B
Orbit
LEO
Last TLE update8 hours ago
Origin
Flag of IRIEI/IRSA (IR / IRAN)
ManufacturerIEI
MissionOperational spacecraft
Bus & MotorUnknown
Mass60 kg wet, 60 kg dry
Launch date (UTC)
2024-09-14 (3 months ago)
Launch vehicle
QAEM-100
Launch site
Sharud Missile Test Site (SMTS)
Object type
Payload
Rocket body
Debris
Shape & HBRUnknown
Radar Cross SectionMedium (>0.1 m² and <1 m²)

Expand to show TLE details & history

TLE from 8 hours ago
0 CHAMRAN-1
1 61072U 24165B   24356.92447679  .00008801  00000-0  60301-3 0  9992
2 61072  64.0929  17.7746 0015146 294.5541  65.3994 15.06520397 14860
Epoch: 2024-12-21T22:11Z
Definitive object data (Epoch: 2024-12-21T22:11:14.794Z)
Latitude0.00003°
Longitude-46.00568°
Altitude544.451 km
Speed7.593 km/s
True Right ascension01h 11m 05s
True Declination0° 00' 00"
Sunlit
Object was in daylight at TLE epoch
Visualization TLE readout
Latitude-27.11853°
Longitude-61.39348°
Altitude547.379 km
Speed7.592 km/s
Apparent Right ascension21h 12m 16s
Apparent Declination-46° 55' 13"
Sunlit
Object is in daylight
Visualization observer readout
Local Sidereal Time05:05:50
Azimuth239.651° WSW
Elevation-45.872°
Doppler factor1
Orbital elements
Apogee altitude555.975 km
Perigee altitude535.002 km
Semi-major axis6,923.625 km
Eccentricity0.0015146
Inclination64.0929°
RAAN17.7746°
Arg. of periapsis294.5541°
True anomaly65.55733°
Mean anomaly65.3994°
Eccentric anomaly65.47835°
Mean motion3.76741 °/min
BSTAR0.00060301
Orbital period95.56 mins
Loading maneuver chart data...
Loading historical data...
Loading historical data...
Loading historical data...
Loading historical data...
Loading historical data...
Loading historical data...
Loading historical data...
Other satellites on launch #165 in the year 2024 (2024-09-14 UTC)

CHAMRAN-1 Visibility forecast

Observer location: undefined°, undefined

Span
Click to sort rows by Start time (UTC) header in descending order
Start Az.
Max El. time (UTC)
Max El. Az.
Max El.
End time (UTC)
End Az.
6 mins2024-12-22 11:27:09.250Z354.167° N2024-12-22 11:30:09.250Z50.72° ENE24.817°2024-12-22 11:33:09.250Z104.589° ESE
5 mins2024-12-22 13:06:09.250Z292.29° WNW2024-12-22 13:08:09.250Z252.406° W24.913°2024-12-22 13:11:09.250Z192.83° SSW
6 mins2024-12-23 03:01:09.250Z187.491° SSW2024-12-23 03:03:09.250Z131.824° SE39.017°2024-12-23 03:07:09.250Z42.144° NE
|